SCP
0 0 0 0 0 0 0 0 0 0 0 0 0 0 0 1 1 1 1 1 2 2 2 2 2 2 2 2 2 2 2 2 2 2 2 2 1 1 1 1 1 1 1 1
0 0 0 0 0 0 0 0 0 0 0 0 0 0 0 1 1 1 1 1 2 2 2 2 2 2 2 2 2 2 2 2 2 2 2 2 1 1 1 1 1 1 1 1
0 0 0 0 0 0 0 0 0 0 0 0 0 0 0 1 1 1 1 1 2 2 2 2 2 2 1 2 2 2 2 2 2 2 2 1 1 1 1 1 1 1 1 1
0 0 0 0 0 0 0 0 0 0 0 0 0 0 0 1 1 1 1 1 2 2 2 2 2 2 2 1 1 1 1 1 1 1 1 1 1 1 1 1 1 1 1 1
0 0 0 0 0 0 0 0 0 0 0 0 0 0 1 1 1 1 1 2 2 2 2 2 2 2 2 2 1 1 1 1 1 1 2 2 1 1 1 1 1 1 1 1
0 0 0 0 0 0 0 0 0 0 0 0 1 1 1 1 1 1 2 2 2 2 2 2 2 2 2 2 1 1 1 2 2 2 2 2 2 2 2 2 2 1 1 1
0 0 0 0 0 0 0 0 0 0 0 1 1 1 1 1 1 1 1 2 2 2 2 2 3 2 2 2 2 2 2 2 2 2 1 1 2 2 2 2 1 1 1 1
0 0 0 0 0 0 0 0 0 0 0 1 1 1 1 1 1 1 1 2 2 2 2 3 3 3 2 2 2 2 2 2 2 1 1 1 2 2 2 2 1 1 1 1
0 0 0 0 0 0 0 0 0 0 0 1 1 1 1 1 1 1 2 2 2 2 2 2 2 3 3 3 2 2 2 2 2 1 1 1 2 2 2 1 1 1 1 1
0 0 0 0 0 0 0 0 0 0 1 1 1 1 1 1 2 2 2 2 1 2 2 2 2 3 3 3 3 2 2 2 2 1 1 1 1 1 1 1 1 1 1 1
0 0 0 0 0 0 0 0 0 0 1 1 1 1 1 2 2 2 2 2 2 2 2 3 3 3 2 2 2 2 2 2 1 1 1 1 1 1 1 1 1 0 0 0
0 0 0 0 0 0 0 0 0 0 0 1 1 1 1 2 2 2 2 2 2 2 3 3 3 2 2 2 2 2 2 2 1 1 1 1 1 0 0 0 0 0 0 0
0 0 0 0 0 0 0 0 0 0 0 1 1 1 1 2 2 2 2 2 2 2 2 2 2 2 2 2 2 2 2 2 1 1 1 1 1 1 0 0 0 0 0 0
0 0 0 0 0 0 0 0 0 0 1 1 1 1 1 2 2 2 2 2 2 2 2 2 2 2 1 1 1 1 1 1 1 1 1 1 1 1 0 0 0 0 0 0
0 0 0 0 0 0 0 0 0 1 1 1 1 1 1 1 1 1 1 1 2 2 2 2 2 1 1 1 1 1 1 1 1 1 1 1 0 0 0 0 0 0 0 0
0 0 0 0 0 0 0 0 0 1 1 1 1 1 1 1 1 1 1 1 1 1 1 1 1 1 1 1 1 1 1 1 1 1 1 0 0 0 0 0 0 0 0 0
0 0 0 0 0 0 0 0 1 1 1 1 1 1 1 1 1 1 1 1 1 1 1 1 1 1 1 1 1 1 0 0 0 0 0 0 0 0 0 0 0 0 0 0
0 0 0 0 0 0 0 0 0 0 1 1 1 1 1 1 1 1 1 1 1 1 1 1 1 1 1 1 0 0 0 0 0 0 0 0 0 0 0 0 0 0 0 0
0 0 0 0 0 0 0 0 0 1 1 1 1 1 1 1 1 1 1 1 1 1 1 1 0 0 0 0 0 0 0 0 0 0 0 0 0 0 0 0 0 0 0 0
0 0 0 0 0 0 0 0 1 1 1 1 1 1 1 1 1 1 1 1 1 1 0 0 0 0 0 0 0 0 0 0 0 0 0 0 0 0 0 0 0 0 0 0
0 0 0 0 0 0 0 1 1 1 1 1 1 1 1 1 1 0 0 0 0 0 0 0 0 0 0 0 0 0 0 0 0 0 0 0 0 0 0 0 0 0 0 0
0 0 0 1 1 1 1 1 1 1 1 1 1 1 1 0 0 0 0 0 0 0 0 0 0 0 0 0 0 0 0 0 0 0 0 0 0 0 0 0 0 0 0 0
1 1 1 1 1 1 1 1 1 1 1 1 1 0 0 0 0 0 0 0 0 0 0 0 0 0 0 0 0 0 0 0 0 0 0 0 0 0 0 0 0 0 0 0
1 1 1 1 1 1 1 1 1 1 0 0 0 0 0 0 0 0 0 0 0 0 0 0 0 0 0 0 0 0 0 0 0 0 0 0 0 0 0 0 0 0 0 0
1 1 1 1 1 1 1 1 0 0 0 0 0 0 0 0 0 0 0 0 0 0 0 0 0 0 0 0 0 0 0 0 0 0 0 0 0 0 0 0 0 0 0 0
1 1 0 0 0 0 0 0 0 0 0 0 0 0 0 0 0 0 0 0 0 0 0 0 0 0 0 0 0 0 0 0 0 0 0 0 0 0 0 0 0 0 0 0
0 0 0 0 0 0 0 0 0 0 0 0 0 0 0 0 0 0 0 0 0 0 0 0 0 0 0 0 0 0 0 0 0 0 0 0 0 0 0 0 0 0 0 0
Wind_Speed
14 14 13 12 13 13 12 10 10 10 6 2 1 1 2 3 2 2 5 5 6 5 4 4 4 3 3 3 3 4 4 4 4 4 4 3 3 3 3 3 3 2 3 3
13 14 14 14 14 14 13 12 11 11 5 1 1 3 2 2 1 1 2 4 5 5 4 4 4 3 3 3 3 3 4 4 3 4 4 3 3 3 3 3 2 2 3 3
12 13 13 15 13 11 10 9 8 7 4 3 3 2 2 3 2 2 2 3 4 4 2 2 2 2 3 3 3 3 3 4 4 4 4 3 3 3 3 3 3 3 3 3
11 11 15 10 9 9 9 7 7 4 4 4 4 2 2 3 3 3 2 2 3 3 3 4 4 4 3 4 4 4 3 3 3 3 3 3 3 3 3 3 3 3 3 3
10 13 14 11 8 10 9 7 5 4 4 4 4 3 3 6 6 4 4 3 1 1 3 3 4 4 3 3 3 3 3 3 3 3 3 3 3 3 3 3 3 3 3 3
11 13 13 7 5 7 8 6 4 5 4 5 5 4 2 5 5 4 4 3 2 1 0 2 3 3 3 3 3 3 3 2 1 2 3 3 4 4 3 3 3 4 3 3
13 14 9 6 6 6 7 3 4 4 3 3 3 3 4 4 4 4 4 3 3 3 2 1 1 2 3 2 2 2 1 1 2 2 4 5 4 3 3 3 4 4 4 4
11 13 8 4 5 3 3 5 4 4 4 3 3 3 3 3 4 3 3 3 3 3 2 2 1 1 2 2 1 1 1 1 2 3 4 3 3 3 3 4 5 5 4 4
5 4 2 5 3 3 3 4 4 5 5 4 3 4 3 2 2 3 3 3 3 2 1 1 1 0 0 0 0 0 1 1 2 2 3 3 3 4 4 4 4 4 3 3
5 3 3 2 3 4 5 5 4 5 5 5 3 3 2 2 2 2 2 3 3 2 1 1 1 2 1 0 0 1 1 2 2 2 2 2 2 3 3 3 3 3 3 3
7 5 5 4 4 4 4 5 4 3 4 5 3 2 2 1 1 2 2 2 2 1 1 1 1 1 1 1 1 1 2 2 2 3 3 2 1 1 2 1 2 2 2 2
6 4 6 6 6 6 5 5 5 4 4 4 3 2 2 1 1 1 1 2 1 1 1 1 1 1 2 2 1 1 2 2 2 3 2 1 1 1 3 2 1 2 3 3
6 5 6 6 7 7 6 6 6 5 4 3 3 2 1 1 1 1 1 2 1 1 1 0 1 1 2 2 2 2 2 2 2 2 2 2 2 2 2 2 2 2 2 3
5 5 6 6 7 7 6 6 6 5 4 2 2 2 1 1 1 1 2 2 2 1 1 1 1 2 2 2 2 3 3 3 3 2 2 2 2 2 3 3 2 2 2 4
7 7 7 7 7 6 6 6 6 5 3 3 2 1 1 1 1 2 2 1 1 1 1 2 2 2 3 3 3 4 4 2 2 3 3 2 3 3 3 3 3 2 1 2
7 8 8 7 6 6 6 6 6 5 4 3 3 2 2 2 2 2 2 2 1 1 1 2 2 3 3 3 3 3 2 2 3 3 3 2 3 3 3 3 3 3 2 2
8 7 6 6 6 6 6 5 5 5 4 3 2 3 2 2 2 2 2 2 1 1 1 2 2 3 3 2 3 3 3 1 2 3 3 3 3 3 3 3 3 3 2 2
7 7 7 6 6 6 5 5 4 5 4 3 2 2 3 3 3 2 2 2 1 2 2 2 2 2 2 2 3 3 3 2 2 2 2 3 3 3 3 3 3 3 2 2
7 6 6 6 5 4 5 5 4 4 3 2 3 2 2 2 3 2 2 1 1 1 1 1 2 2 2 2 4 2 2 3 2 2 2 2 3 3 3 3 3 3 4 3
4 4 5 6 5 5 5 5 4 3 3 2 3 2 2 2 3 2 1 1 1 1 1 2 1 2 2 3 4 3 3 3 2 2 2 2 3 3 3 3 3 4 4 3
4 3 4 5 5 5 5 4 3 3 2 2 2 2 2 2 2 1 0 1 2 2 1 1 1 2 3 3 4 2 2 2 2 2 2 3 3 3 3 3 3 3 3 3
3 3 4 4 4 4 4 3 2 2 2 2 2 2 1 1 1 1 2 1 1 2 1 2 3 4 4 4 2 3 3 3 3 3 3 3 3 3 3 4 3 3 3 3
3 3 4 5 4 4 3 2 1 2 2 2 2 1 1 0 1 1 2 2 2 2 2 3 4 4 4 2 2 3 3 3 3 3 3 3 3 3 3 3 3 3 4 4
4 4 3 3 3 3 1 0 0 1 2 2 2 1 1 2 2 3 3 3 3 3 3 4 4 3 2 2 3 3 3 3 3 3 3 3 3 3 3 3 3 4 4 4
3 3 2 2 2 1 1 1 2 2 2 2 2 2 2 2 3 3 3 3 4 3 3 4 3 3 2 3 4 4 3 4 4 4 3 3 4 4 4 4 4 4 4 4
2 2 1 1 1 0 1 1 1 1 2 2 2 2 3 3 3 2 2 3 4 3 2 2 3 2 3 3 3 3 3 3 3 3 4 4 4 4 4 5 6 5 5 5
1 1 1 1 1 1 1 1 1 1 2 2 2 2 3 2 2 2 3 2 3 3 3 2 2 2 2 3 3 3 3 3 3 4 4 4 4 4 4 5 4 4 4 5
Wind_Direction
264 270 274 275 275 272 267 264 271 275 273 267 194 99 52 72 93 128 137 127 119 117 113 124 129 132 151 157 156 159 166 176 179 186 185 180 185 199 193 208 219 208 226 237
271 269 268 270 264 266 266 266 262 273 277 219 271 82 81 78 86 86 108 118 120 120 127 138 138 145 149 160 161 169 183 183 179 186 189 189 195 192 205 220 229 223 231 239
272 277 277 266 267 263 263 270 276 279 305 5 349 38 93 106 87 51 58 98 118 118 132 142 147 141 172 172 165 180 194 186 185 193 198 198 207 196 213 227 233 235 241 246
269 270 263 267 279 282 277 280 288 292 318 332 341 11 61 72 69 51 44 68 112 144 163 165 160 175 199 183 179 189 195 198 194 195 202 194 202 209 217 226 238 245 248 252
265 260 259 260 276 283 277 280 308 310 317 338 346 343 63 59 55 44 35 35 70 165 164 159 170 173 178 195 192 197 201 209 214 204 205 210 218 224 227 231 241 244 243 243
259 263 264 266 279 290 283 263 320 322 339 2 343 305 32 46 38 32 30 24 3 6 173 155 160 164 184 213 209 212 215 216 222 220 222 226 225 228 235 235 242 248 246 251
251 259 264 290 295 285 271 300 346 341 355 358 357 348 11 30 31 29 22 17 9 12 27 51 125 159 201 221 233 225 213 216 227 235 238 231 226 220 227 233 241 247 248 244
246 254 255 323 320 335 7 359 5 360 349 349 354 360 26 34 31 21 8 16 14 13 31 36 57 173 204 223 251 249 219 238 238 239 252 244 225 228 232 231 238 238 239 240
259 259 0 355 357 22 11 344 344 345 348 336 332 351 15 23 14 8 4 4 356 0 51 46 359 351 230 192 165 242 215 253 262 265 267 251 242 240 235 231 238 243 241 246
278 267 290 329 353 1 352 338 336 341 343 322 322 333 350 2 4 358 353 352 350 353 44 42 12 3 8 17 190 240 239 255 266 262 256 256 248 244 240 248 253 258 259 262
286 297 303 302 318 330 327 319 324 334 312 300 309 322 322 329 349 352 346 345 343 347 22 28 43 12 348 353 302 253 250 261 275 272 256 245 259 280 262 255 259 255 280 289
282 311 307 320 331 322 319 325 323 312 307 310 315 314 298 290 319 325 324 330 334 5 24 25 23 354 348 0 320 255 250 252 262 269 268 267 253 310 351 313 261 224 233 249
302 308 307 309 311 315 311 312 310 304 304 311 318 310 288 295 319 341 331 323 331 346 343 12 360 337 340 338 318 279 270 271 272 274 278 282 277 266 280 307 320 295 263 254
307 306 293 295 302 311 312 312 313 310 316 323 320 321 327 323 339 326 322 322 331 352 335 324 340 340 332 319 304 291 275 269 277 277 273 270 279 283 275 269 271 272 266 254
281 281 281 290 294 308 317 311 309 310 320 318 313 318 308 321 324 315 328 320 327 326 325 331 336 333 324 313 305 295 284 284 297 297 290 286 286 287 290 298 298 289 276 273
275 274 273 277 284 293 294 301 308 309 318 327 341 337 319 317 320 323 327 321 290 283 334 339 330 331 321 317 314 307 302 295 296 298 296 299 299 300 306 311 315 322 324 333
266 266 267 275 282 284 289 298 302 307 316 324 343 335 318 306 305 314 318 311 310 345 9 344 334 328 321 327 320 316 310 302 308 316 334 333 326 321 317 310 312 322 341 5
258 265 266 273 286 295 302 305 307 308 308 319 318 304 300 300 296 301 304 312 356 24 1 349 348 338 345 352 329 314 315 326 343 347 344 337 331 323 319 321 329 338 349 356
251 258 262 266 269 275 282 284 286 294 309 316 300 294 299 298 301 301 305 315 325 331 337 6 350 345 360 6 331 309 314 325 338 346 337 341 327 327 339 350 351 352 353 357
260 266 271 272 272 270 272 276 278 283 287 293 295 294 305 315 322 322 351 351 345 351 19 17 10 15 14 5 326 317 327 330 345 358 359 352 349 351 357 352 356 359 359 356
282 283 290 286 275 269 268 262 261 264 266 269 279 290 301 307 312 309 42 12 2 17 13 59 46 34 14 344 315 337 343 351 5 8 360 359 5 6 3 5 3 359 353 355
296 305 313 307 289 276 274 271 254 250 249 238 238 270 289 296 7 41 57 82 36 14 11 47 48 40 9 340 356 7 4 8 13 22 21 15 6 2 359 355 357 359 356 0
319 325 318 310 297 289 282 275 247 225 208 196 193 198 188 80 102 90 64 64 73 37 42 51 51 39 6 0 19 15 17 20 19 21 21 15 5 1 359 355 355 360 3 7
313 311 310 318 331 319 334 349 22 117 114 119 125 121 115 99 86 90 100 97 77 55 62 76 73 45 10 26 32 33 30 20 15 21 21 13 6 3 3 3 5 10 9 1
305 317 331 340 353 359 7 45 90 107 108 101 101 101 97 92 94 92 102 107 103 88 93 92 69 29 20 35 36 39 40 35 27 23 24 21 19 17 16 14 15 12 11 6
320 313 339 342 358 6 2 22 64 84 89 86 81 82 88 91 98 109 114 105 95 79 68 83 72 42 32 37 42 39 41 48 33 29 32 32 29 27 22 20 23 20 16 13
268 282 289 315 57 66 53 30 44 71 93 95 93 96 96 94 94 87 80 87 88 76 66 55 52 48 46 46 41 33 30 31 29 28 32 32 30 27 26 22 19 21 21 21